Tracking 25620 objects as of 18-May-2022
HD Live streaming from Space Station
objects crossing your sky now

COSMOS 2251 DEB

Track COSMOS 2251 DEB now!
10-day predictions


NORAD ID: 35019
Int'l Code: 1993-036AGG
Perigee: 609.4 km
Apogee: 646.0 km
Inclination: 74.0 °
Period: 97.1 minutes
Semi major axis: 6998 km
RCS: 0.0084 m2 (small)
Launch date: June 16, 1993
Source: Commonwealth of Independent States (former USSR) (CIS)
Launch site: PLESETSK MISSILE AND SPACE COMPLEX (PKMTR)

Note: This is SATELLITE DEBRIS
aabbcc
Your satellite tracking list
Your tracking list is empty




NASA's NSSDC Master Catalog

Two Line Element Set (TLE):
1 35019U 93036AGG 22137.66933476  .00030360  00000-0  37205-2 0  9999
2 35019  74.0066 122.4353 0026172 206.5284 153.4556 14.82777656697934
Source of the keplerian elements: AFSPC